| time (UTC) | temp F | wind direction | speed MPH | gust MPH | rain 1hr in | rain 24hr in | rain mn in | humidity % | barometer mb |
| 20260503001803 | 43 | 274 | 4.0 | 7.0 | 0.00 | 0.00 | 0.00 | 64 | 1002.2 |
| 20260503000924 | 43 | 283 | 3.0 | 8.0 | 0.00 | 0.00 | 0.00 | 65 | 1002.2 |
| 20260503000004 | 43 | 285 | 4.0 | 8.0 | 0.00 | 0.00 | 0.00 | 65 | 1002.3 |
| 20260502235403 | 43 | 289 | 4.0 | 9.0 | 0.00 | 0.00 | 0.00 | 66 | 1002.3 |
| 20260502234503 | 43 | 275 | 3.0 | 7.0 | 0.00 | 0.00 | 0.00 | 67 | 1002.3 |
| 20260502233603 | 43 | 274 | 3.0 | 7.0 | 0.00 | 0.00 | 0.00 | 67 | 1002.2 |
| 20260502232724 | 43 | 286 | 5.0 | 9.0 | 0.00 | 0.00 | 0.00 | 67 | 1002.2 |
| 20260502231803 | 43 | 292 | 6.0 | 12.0 | 0.00 | 0.00 | 0.00 | 69 | 1002.3 |
| 20260502230903 | 43 | 296 | 5.0 | 12.0 | 0.00 | 0.00 | 0.00 | 70 | 1002.2 |
| 20260502230024 | 44 | 305 | 4.0 | 7.0 | 0.00 | 0.00 | 0.00 | 71 | 1002.0 |
| 20260502225403 | 44 | 301 | 3.0 | 6.0 | 0.00 | 0.00 | 0.00 | 71 | 1002.1 |
| 20260502224524 | 44 | 306 | 3.0 | 7.0 | 0.00 | 0.00 | 0.00 | 71 | 1002.1 |
| 20260502223603 | 44 | 304 | 3.0 | 6.0 | 0.00 | 0.00 | 0.00 | 72 | 1002.1 |
| 20260502222703 | 44 | 299 | 3.0 | 7.0 | 0.00 | 0.00 | 0.00 | 72 | 1002.1 |
| 20260502221824 | 44 | 308 | 4.0 | 8.0 | 0.00 | 0.00 | 0.00 | 72 | 1002.0 |
| 20260502220903 | 45 | 292 | 4.0 | 9.0 | 0.00 | 0.00 | 0.00 | 72 | 1002.1 |
| 20260502220003 | 45 | 294 | 4.0 | 7.0 | 0.00 | 0.00 | 0.00 | 72 | 1001.9 |
| 20260502215403 | 45 | 294 | 3.0 | 7.0 | 0.00 | 0.00 | 0.00 | 72 | 1002.0 |
| 20260502214503 | 45 | 287 | 4.0 | 9.0 | 0.00 | 0.00 | 0.00 | 72 | 1001.9 |
| 20260502213603 | 45 | 289 | 4.0 | 8.0 | 0.00 | 0.00 | 0.00 | 73 | 1001.9 |
| 20260502212703 | 46 | 288 | 4.0 | 8.0 | 0.00 | 0.00 | 0.00 | 72 | 1001.8 |
| 20260502211803 | 46 | 289 | 4.0 | 8.0 | 0.00 | 0.00 | 0.00 | 72 | 1001.8 |
| 20260502210924 | 46 | 294 | 4.0 | 8.0 | 0.00 | 0.00 | 0.00 | 72 | 1001.8 |
| 20260502210006 | 46 | 291 | 3.0 | 7.0 | 0.00 | 0.00 | 0.00 | 72 | 1001.8 |
| 20260502205403 | 46 | 296 | 3.0 | 8.0 | 0.00 | 0.00 | 0.00 | 72 | 1001.8 |
| 20260502204503 | 46 | 299 | 3.0 | 6.0 | 0.00 | 0.00 | 0.00 | 72 | 1001.8 |
| 20260502203624 | 46 | 295 | 3.0 | 7.0 | 0.00 | 0.00 | 0.00 | 71 | 1001.7 |
| 20260502202703 | 47 | 287 | 4.0 | 8.0 | 0.00 | 0.00 | 0.00 | 71 | 1001.8 |
| 20260502201803 | 47 | 288 | 4.0 | 9.0 | 0.00 | 0.00 | 0.00 | 70 | 1001.7 |
| 20260502200903 | 48 | 292 | 5.0 | 9.0 | 0.00 | 0.00 | 0.00 | 69 | 1001.6 |
| 20260502200003 | 48 | 291 | 6.0 | 11.0 | 0.00 | 0.00 | 0.00 | 68 | 1001.7 |
| 20260502195424 | 48 | 292 | 6.0 | 11.0 | 0.00 | 0.00 | 0.00 | 68 | 1001.6 |
| 20260502194503 | 49 | 281 | 6.0 | 11.0 | 0.00 | 0.00 | 0.00 | 68 | 1001.6 |
| 20260502193603 | 48 | 277 | 3.0 | 9.0 | 0.00 | 0.00 | 0.00 | 70 | 1001.5 |
| 20260502192703 | 47 | 238 | 1.0 | 3.0 | 0.00 | 0.00 | 0.00 | 71 | 1001.4 |
| 20260502191824 | 46 | 252 | 0.0 | 4.0 | 0.00 | 0.00 | 0.00 | 71 | 1001.4 |
| 20260502190903 | 47 | 0 | 0.0 | 0.0 | 0.00 | 0.00 | 0.00 | 70 | 1001.4 |
| 20260502190004 | 47 | 0 | 0.0 | 0.0 | 0.00 | 0.00 | 0.00 | 68 | 1001.3 |
| 20260502185403 | 48 | 0 | 0.0 | 0.0 | 0.00 | 0.00 | 0.00 | 67 | 1001.3 |
| 20260502184503 | 49 | 0 | 0.0 | 0.0 | 0.00 | 0.00 | 0.00 | 66 | 1001.3 |
| 20260502183624 | 50 | 289 | 0.0 | 2.0 | 0.00 | 0.00 | 0.00 | 65 | 1001.3 |
| 20260502182703 | 50 | 290 | 0.0 | 2.0 | 0.00 | 0.00 | 0.00 | 63 | 1001.2 |
| 20260502181824 | 52 | 0 | 0.0 | 0.0 | 0.00 | 0.00 | 0.00 | 62 | 1001.3 |
| 20260502180903 | 52 | 290 | 0.0 | 2.0 | 0.00 | 0.00 | 0.00 | 61 | 1001.3 |
| 20260502163603 | 55 | 299 | 6.0 | 10.0 | 0.00 | 0.00 | 0.00 | 56 | 1001.5 |
| 20260502162703 | 56 | 299 | 6.0 | 11.0 | 0.00 | 0.00 | 0.00 | 55 | 1001.6 |
| 20260502161803 | 56 | 296 | 8.0 | 17.0 | 0.00 | 0.00 | 0.00 | 55 | 1001.6 |
| 20260502160903 | 57 | 306 | 8.0 | 15.0 | 0.00 | 0.00 | 0.00 | 53 | 1001.6 |
| 20260502151825 | 58 | 283 | 9.0 | 20.0 | 0.00 | 0.00 | 0.00 | 52 | 1001.7 |
| 20260502150925 | 58 | 303 | 8.0 | 20.0 | 0.00 | 0.00 | 0.00 | 52 | 1001.7 |
| 20260502123604 | 61 | 278 | 11.0 | 20.0 | 0.00 | 0.00 | 0.00 | 43 | 1001.5 |
| 20260502122704 | 61 | 285 | 10.0 | 19.0 | 0.00 | 0.00 | 0.00 | 43 | 1001.4 |
| 20260502121804 | 62 | 296 | 12.0 | 19.0 | 0.00 | 0.00 | 0.00 | 44 | 1001.3 |
| 20260502120904 | 62 | 296 | 11.0 | 23.0 | 0.00 | 0.00 | 0.00 | 43 | 1001.4 |
| 20260502115404 | 62 | 298 | 10.0 | 16.0 | 0.00 | 0.00 | 0.00 | 46 | 1001.3 |
| 20260502114525 | 62 | 297 | 11.0 | 20.0 | 0.00 | 0.00 | 0.00 | 47 | 1001.3 |
| 20260502113604 | 62 | 278 | 8.0 | 15.0 | 0.00 | 0.00 | 0.00 | 49 | 1001.3 |
| 20260502112704 | 62 | 264 | 7.0 | 14.0 | 0.00 | 0.00 | 0.00 | 51 | 1001.4 |
| 20260502111825 | 62 | 276 | 9.0 | 19.0 | 0.00 | 0.00 | 0.00 | 52 | 1001.4 |
| 20260502110904 | 62 | 280 | 9.0 | 16.0 | 0.00 | 0.00 | 0.00 | 50 | 1001.4 |
| 20260502110025 | 62 | 274 | 7.0 | 17.0 | 0.00 | 0.00 | 0.00 | 50 | 1001.4 |
| 20260502105425 | 62 | 273 | 5.0 | 13.0 | 0.00 | 0.00 | 0.00 | 49 | 1001.4 |
| 20260502104504 | 62 | 283 | 7.0 | 16.0 | 0.00 | 0.00 | 0.00 | 48 | 1001.2 |
| 20260502103625 | 64 | 240 | 5.0 | 10.0 | 0.00 | 0.00 | 0.00 | 47 | 1001.2 |
| 20260502102725 | 63 | 266 | 5.0 | 13.0 | 0.00 | 0.00 | 0.00 | 47 | 1001.1 |
| 20260502101804 | 62 | 246 | 4.0 | 12.0 | 0.00 | 0.00 | 0.00 | 47 | 1001.2 |
| 20260502100904 | 63 | 240 | 6.0 | 13.0 | 0.00 | 0.00 | 0.00 | 46 | 1001.2 |
| 20260502090904 | 62 | 255 | 3.0 | 12.0 | 0.00 | 0.00 | 0.00 | 46 | 1001.8 |
| 20260502070904 | 54 | 173 | 6.0 | 12.0 | 0.00 | 0.00 | 0.00 | 58 | 1003.3 |
| 20260502070004 | 54 | 168 | 6.0 | 12.0 | 0.00 | 0.00 | 0.00 | 60 | 1003.5 |
| 20260502065404 | 54 | 167 | 7.0 | 12.0 | 0.00 | 0.00 | 0.00 | 59 | 1003.6 |
| 20260502064504 | 54 | 176 | 5.0 | 11.0 | 0.00 | 0.00 | 0.00 | 61 | 1003.7 |
| 20260502063604 | 53 | 177 | 5.0 | 11.0 | 0.00 | 0.00 | 0.00 | 60 | 1003.9 |
| 20260502062704 | 53 | 169 | 5.0 | 10.0 | 0.00 | 0.00 | 0.00 | 61 | 1003.9 |
| 20260502061825 | 53 | 172 | 5.0 | 10.0 | 0.00 | 0.00 | 0.00 | 61 | 1004.1 |
| 20260502060904 | 53 | 175 | 5.0 | 9.0 | 0.00 | 0.00 | 0.00 | 61 | 1004.2 |
| 20260502060004 | 52 | 178 | 4.0 | 9.0 | 0.00 | 0.00 | 0.00 | 63 | 1004.4 |
| 20260502055404 | 52 | 188 | 4.0 | 10.0 | 0.00 | 0.00 | 0.00 | 63 | 1004.5 |
| 20260502054504 | 51 | 185 | 5.0 | 10.0 | 0.00 | 0.00 | 0.00 | 65 | 1004.7 |
| 20260502053625 | 50 | 169 | 5.0 | 10.0 | 0.00 | 0.00 | 0.00 | 68 | 1004.7 |
| 20260502052704 | 49 | 169 | 4.0 | 8.0 | 0.00 | 0.00 | 0.00 | 70 | 1004.9 |
| 20260502051825 | 48 | 157 | 4.0 | 7.0 | 0.00 | 0.00 | 0.00 | 72 | 1005.0 |
| 20260502050904 | 47 | 169 | 3.0 | 7.0 | 0.00 | 0.00 | 0.00 | 72 | 1004.9 |
| 20260502050004 | 47 | 205 | 1.0 | 2.0 | 0.00 | 0.00 | 0.00 | 73 | 1005.4 |
| 20260502045425 | 46 | 205 | 1.0 | 2.0 | 0.00 | 0.00 | 0.00 | 73 | 1005.4 |
| 20260502044504 | 46 | 205 | 1.0 | 4.0 | 0.00 | 0.00 | 0.00 | 73 | 1005.5 |
| 20260502043604 | 46 | 205 | 0.0 | 2.0 | 0.00 | 0.00 | 0.00 | 74 | 1005.6 |
| 20260502042704 | 45 | 205 | 1.0 | 3.0 | 0.00 | 0.00 | 0.00 | 75 | 1005.6 |
| 20260502041804 | 45 | 209 | 2.0 | 3.0 | 0.00 | 0.00 | 0.00 | 75 | 1005.6 |
| 20260502040904 | 44 | 190 | 1.0 | 4.0 | 0.00 | 0.00 | 0.00 | 76 | 1005.7 |
| 20260502040004 | 44 | 173 | 1.0 | 3.0 | 0.00 | 0.00 | 0.00 | 76 | 1005.7 |
| 20260502035404 | 44 | 175 | 1.0 | 5.0 | 0.00 | 0.00 | 0.00 | 76 | 1005.8 |
| 20260502034504 | 43 | 201 | 0.0 | 5.0 | 0.00 | 0.00 | 0.00 | 77 | 1006.1 |
| 20260502033604 | 43 | 199 | 0.0 | 2.0 | 0.00 | 0.00 | 0.00 | 77 | 1006.1 |
| 20260502032725 | 42 | 199 | 1.0 | 2.0 | 0.00 | 0.00 | 0.00 | 77 | 1006.3 |
| 20260502031804 | 42 | 199 | 0.0 | 3.0 | 0.00 | 0.00 | 0.00 | 78 | 1006.5 |
| 20260502030925 | 41 | 199 | 0.0 | 2.0 | 0.00 | 0.00 | 0.00 | 79 | 1006.6 |
| 20260502030004 | 41 | 199 | 0.0 | 2.0 | 0.00 | 0.00 | 0.00 | 80 | 1006.7 |
| 20260502025404 | 41 | 199 | 1.0 | 2.0 | 0.00 | 0.00 | 0.00 | 79 | 1006.7 |
| 20260502024504 | 41 | 199 | 0.0 | 1.0 | 0.00 | 0.00 | 0.00 | 79 | 1006.8 |
| 20260502023604 | 41 | 199 | 0.0 | 2.0 | 0.00 | 0.00 | 0.00 | 77 | 1006.9 |
| 20260502022704 | 41 | 199 | 0.0 | 2.0 | 0.00 | 0.00 | 0.00 | 77 | 1007.1 |
| 20260502021804 | 42 | 199 | 0.0 | 4.0 | 0.00 | 0.00 | 0.00 | 76 | 1007.3 |
| 20260502020925 | 42 | 213 | 1.0 | 3.0 | 0.00 | 0.00 | 0.00 | 76 | 1007.4 |
| 20260502020004 | 42 | 222 | 0.0 | 3.0 | 0.00 | 0.00 | 0.00 | 75 | 1007.4 |
| 20260502015425 | 42 | 202 | 1.0 | 3.0 | 0.00 | 0.00 | 0.00 | 75 | 1007.5 |
| 20260502014504 | 42 | 198 | 1.0 | 3.0 | 0.00 | 0.00 | 0.00 | 75 | 1007.5 |
| 20260502013604 | 42 | 222 | 1.0 | 4.0 | 0.00 | 0.00 | 0.00 | 73 | 1007.6 |
| 20260502012725 | 43 | 0 | 0.0 | 0.0 | 0.00 | 0.00 | 0.00 | 73 | 1007.6 |
| 20260502011804 | 43 | 0 | 0.0 | 0.0 | 0.00 | 0.00 | 0.00 | 72 | 1007.8 |
| 20260502010904 | 43 | 0 | 0.0 | 0.0 | 0.00 | 0.00 | 0.00 | 72 | 1007.7 |
| 20260502010004 | 43 | 242 | 0.0 | 3.0 | 0.00 | 0.00 | 0.00 | 72 | 1007.9 |
| 20260502005425 | 43 | 242 | 0.0 | 3.0 | 0.00 | 0.00 | 0.00 | 71 | 1007.9 |
| 20260502004504 | 44 | 242 | 2.0 | 4.0 | 0.00 | 0.00 | 0.00 | 72 | 1008.0 |
| 20260502003604 | 43 | 242 | 2.0 | 4.0 | 0.00 | 0.00 | 0.00 | 72 | 1007.9 |
| 20260502002704 | 43 | 242 | 1.0 | 2.0 | 0.00 | 0.00 | 0.00 | 72 | 1008.0 |